Miscellaneous Local Product
Issued by NWS Hastings, NE

Home | Current Version | Previous Version | Text Only | Print | Product List | Glossary Off
Versions: 1 2 3 4 5 6 7 8 9 10 11 12 13 14 15 16 17 18 19 20 21 22 23 24 25 26 27 28 29 30 31 32 33 34 35 36 37 38 39 40 41 42 43 44 45 46 47 48 49 50

953
AXUS43 KGID 221902
MISGRI

GID CWA HOURLY WEATHER ROUNDUP
NATIONAL WEATHER SERVICE HASTINGS NE
200 PM CDT MON MAY 22 2017

NOTE: "FAIR" INDICATES FEW OR NO CLOUDS BELOW 12,000 FEET WITH NO
SIGNIFICANT WEATHER AND/OR OBSTRUCTIONS TO VISIBILITY.

...SOUTH CENTRAL NEBRASKA...

CITY           SKY/WX    TMP DP  RH WIND       PRES   REMARKS
GRAND ISLAND   SUNNY     72  45  37 W14       29.93F
HASTINGS       CLOUDY    70  43  37 VRB5      29.95F
KEARNEY        SUNNY     72  43  35 W10       29.95F
ORD            SUNNY     65  43  44 NW21G32   29.94R
YORK           CLOUDY    72  46  40 W9G18     29.94F
AURORA         CLOUDY    71  42  35 W7        29.92F
LEXINGTON      PTSUNNY   71  44  39 NW23G29   29.95F
HOLDREGE       PTSUNNY   69  40  33 W6G20     29.95F
HEBRON         CLOUDY    64  53  69 SW12      29.98F

...NEBRASKA PANHANDLE...

CITY           SKY/WX    TMP DP  RH WIND       PRES   REMARKS
CHADRON        CLOUDY    58  40  51 SW5       30.01F
ALLIANCE       TSTM      51  40  65 W31G41    30.04R
SCOTTSBLUFF    LGT RAIN  56  42  59 N20G31    30.08R
SIDNEY         MOSUNNY   60  41  49 N22G30    30.07F

...WESTERN AND NORTH CENTRAL NEBRASKA...

CITY           SKY/WX    TMP DP  RH WIND       PRES   REMARKS
VALENTINE      CLOUDY    66  42  41 NW12      29.95F
AINSWORTH      PTSUNNY   59  47  63 NW12      29.97F
ONEILL         LGT RAIN  57  44  63 W10       29.95F
BROKEN BOW     MOSUNNY   69  45  41 N21G29    29.95S
IMPERIAL       PTSUNNY   65  40  39 N13G24    30.01F
NORTH PLATTE   CLOUDY    68  51  54 NW12      29.97F
MCCOOK         MOSUNNY   75  38  26 NW16G23   29.96F

...EASTERN NEBRASKA...

CITY           SKY/WX    TMP DP  RH WIND       PRES   REMARKS
NORFOLK        PTSUNNY   69  43  38 NW18G24   29.89S
SO SIOUX CITY  MOSUNNY   70  49  47 W15G23    29.86F
TEKAMAH        SUNNY     72  46  39 W13       29.88F
COLUMBUS         N/A    N/A N/A N/A MISG        N/A
ALBION         MOSUNNY   70  44  38 NW15G28   29.92S
OMAHA EPPLEY   CLOUDY    74  45  35 SW12G22   29.90F
OFFUTT AFB     CLOUDY    70  53  53 S15G21    29.90F
MILLARD        PTSUNNY   73  53  50 SW10G16   29.90F
LINCOLN        MOSUNNY   71  53  52 SW18      29.92F
NEBRASKA CITY  CLOUDY    67  51  55 SW20      29.95F
BEATRICE       MOSUNNY   67  56  67 SW14      29.97F
FALLS CITY     RAIN      59  57  93 SW22G29   29.96F

...NORTHERN KANSAS...

CITY           SKY/WX    TMP DP  RH WIND       PRES   REMARKS
GOODLAND       MOSUNNY   66  43  43 NW10G20   30.03F
HILL CITY      CLOUDY    69  48  47 VRB7      30.00F
NORTON         PTCLDY    70  41  35 SW10G16   29.96F
PHILLIPSBURG   SUNNY     70  46  43 SW8       29.98F
SMITH CENTER   SUNNY     64  52  63 SW8       29.99F
HAYS           CLOUDY    60  56  86 W12       30.02F
RUSSELL        CLOUDY    58  55  90 W12       30.00F
CONCORDIA      CLOUDY    60  57  89 SW10      29.99F
SALINA         LGT RAIN  63  59  87 NW6       30.01F
TOPEKA         CLOUDY    72  59  63 SW9       29.98F



USA.gov is the U.S. government's official web portal to all federal, state and local government web resources and services.